When you browse on this site, cookies collect data to enhance your experience and personalize the content and advertising you see.
Visit our Privacy Policy to learn more. By continuing to use the site, you agree to this use of cookies and data.
  • în România
  • Lista ţărilor
  • Pe 7 zile
  • Temperatura apei
  • Meteo pe hartă
  • Widget-uri
  • user-avatar
    Intrare

    Meteo pe oră la Oksford

    Astăzi, 5 Iunie, Vineri

    Timp Temperatura Precipitaţii Vânt Presiune Umiditate
    00:00 +7°C° 0.1 mm 4 m/s 743 mmHg 96%
    01:00 +7°C° 0 mm 4 m/s 742 mmHg 96%
    02:00 +7°C° 0 mm 4 m/s 742 mmHg 96%
    03:00 +6°C° 0 mm 4 m/s 741 mmHg 96%
    04:00 +6°C° 0 mm 5 m/s 741 mmHg 94%
    05:00 +5°C° 0 mm 6 m/s 741 mmHg 92%
    06:00 +5°C° 0 mm 7 m/s 741 mmHg 90%
    07:00 +8°C° 0.1 mm 7 m/s 741 mmHg 84%
    08:00 +9°C° 0.1 mm 8 m/s 742 mmHg 78%
    09:00 +10°C° 0.1 mm 9 m/s 742 mmHg 72%
    10:00 +11°C° 0.3 mm 8 m/s 742 mmHg 69%
    11:00 +12°C° 0.3 mm 8 m/s 742 mmHg 65%
    12:00 +12°C° 0.3 mm 8 m/s 742 mmHg 61%
    13:00 +12°C° 0.3 mm 8 m/s 742 mmHg 61%
    14:00 +12°C° 0.3 mm 8 m/s 742 mmHg 61%
    15:00 +12°C° 0.3 mm 8 m/s 742 mmHg 61%
    16:00 +12°C° 0.3 mm 8 m/s 742 mmHg 66%
    17:00 +11°C° 0.3 mm 7 m/s 742 mmHg 71%
    18:00 +10°C° 0.3 mm 6 m/s 742 mmHg 76%
    19:00 +9°C° 0.1 mm 5 m/s 742 mmHg 80%
    20:00 +7°C° 0.1 mm 5 m/s 742 mmHg 84%
    21:00 +6°C° 0.1 mm 4 m/s 743 mmHg 88%
    22:00 +5°C° 0 mm 5 m/s 743 mmHg 88%
    23:00 +5°C° 0 mm 5 m/s 743 mmHg 87%

    Mâine, 6 Iunie, Sâmbătă

    Timp Temperatura Precipitaţii Vânt Presiune Umiditate
    00:00 +3°C° 0 mm 5 m/s 743 mmHg 87%
    01:00 +3°C° 0 mm 6 m/s 743 mmHg 86%
    02:00 +3°C° 0 mm 6 m/s 743 mmHg 85%
    03:00 +3°C° 0 mm 6 m/s 743 mmHg 85%
    04:00 +3°C° 0 mm 7 m/s 742 mmHg 82%
    05:00 +4°C° 0 mm 8 m/s 742 mmHg 78%
    06:00 +5°C° 0 mm 9 m/s 742 mmHg 75%
    07:00 +6°C° 0.1 mm 10 m/s 742 mmHg 76%
    08:00 +7°C° 0.1 mm 10 m/s 742 mmHg 76%
    09:00 +8°C° 0.1 mm 10 m/s 742 mmHg 77%
    10:00 +8°C° 0.3 mm 9 m/s 742 mmHg 82%
    11:00 +8°C° 0.3 mm 9 m/s 742 mmHg 87%
    12:00 +9°C° 0.3 mm 8 m/s 742 mmHg 91%
    13:00 +10°C° 0.4 mm 8 m/s 742 mmHg 87%
    14:00 +12°C° 0.4 mm 7 m/s 742 mmHg 83%
    15:00 +14°C° 0.4 mm 7 m/s 742 mmHg 79%
    16:00 +14°C° 0.8 mm 6 m/s 743 mmHg 81%
    17:00 +13°C° 0.8 mm 6 m/s 743 mmHg 84%
    18:00 +13°C° 0.8 mm 5 m/s 743 mmHg 86%
    19:00 +12°C° 0.3 mm 5 m/s 744 mmHg 88%
    20:00 +10°C° 0.3 mm 4 m/s 745 mmHg 90%
    21:00 +8°C° 0.3 mm 4 m/s 746 mmHg 92%
    22:00 +8°C° 0 mm 4 m/s 746 mmHg 93%
    23:00 +7°C° 0 mm 4 m/s 746 mmHg 94%

    Poimâine, 7 Iunie, Duminică

    Timp Temperatura Precipitaţii Vânt Presiune Umiditate
    00:00 +7°C° 0 mm 4 m/s 746 mmHg 95%
    01:00 +8°C° 0 mm 3 m/s 747 mmHg 96%
    02:00 +7°C° 0 mm 3 m/s 747 mmHg 96%
    03:00 +7°C° 0 mm 3 m/s 747 mmHg 97%
    04:00 +8°C° 0 mm 3 m/s 748 mmHg 96%
    05:00 +9°C° 0 mm 3 m/s 748 mmHg 95%
    06:00 +9°C° 0 mm 3 m/s 748 mmHg 95%
    07:00 +11°C° 0 mm 3 m/s 748 mmHg 89%
    08:00 +13°C° 0 mm 3 m/s 749 mmHg 83%
    09:00 +14°C° 0 mm 3 m/s 749 mmHg 77%
    10:00 +16°C° 0.3 mm 3 m/s 750 mmHg 76%
    11:00 +15°C° 0.3 mm 4 m/s 750 mmHg 75%
    12:00 +17°C° 0.3 mm 4 m/s 750 mmHg 74%
    13:00 +17°C° 0.7 mm 4 m/s 750 mmHg 76%
    14:00 +16°C° 0.7 mm 5 m/s 751 mmHg 79%
    15:00 +16°C° 0.7 mm 5 m/s 751 mmHg 81%
    16:00 +15°C° 0.2 mm 5 m/s 751 mmHg 82%
    17:00 +14°C° 0.2 mm 5 m/s 752 mmHg 83%
    18:00 +13°C° 0.2 mm 5 m/s 752 mmHg 84%
    19:00 +12°C° 0 mm 4 m/s 753 mmHg 87%
    20:00 +11°C° 0 mm 4 m/s 754 mmHg 90%
    21:00 +9°C° 0 mm 3 m/s 754 mmHg 93%
    22:00 +9°C° 0 mm 3 m/s 754 mmHg 93%
    23:00 +8°C° 0 mm 3 m/s 755 mmHg 93%

    8 Iunie, Luni

    Timp Temperatura Precipitaţii Vânt Presiune Umiditate
    00:00 +7°C° 0 mm 3 m/s 755 mmHg 94%
    01:00 +7°C° 0 mm 3 m/s 755 mmHg 94%
    02:00 +5°C° 0 mm 3 m/s 755 mmHg 94%
    03:00 +5°C° 0 mm 3 m/s 756 mmHg 95%
    04:00 +7°C° 0 mm 3 m/s 756 mmHg 92%
    05:00 +7°C° 0 mm 3 m/s 756 mmHg 89%
    06:00 +7°C° 0 mm 4 m/s 756 mmHg 86%
    07:00 +10°C° 0 mm 4 m/s 757 mmHg 80%
    08:00 +11°C° 0 mm 4 m/s 757 mmHg 74%
    09:00 +12°C° 0 mm 4 m/s 757 mmHg 68%
    10:00 +13°C° 0 mm 4 m/s 758 mmHg 66%
    11:00 +14°C° 0 mm 4 m/s 758 mmHg 64%
    12:00 +14°C° 0 mm 4 m/s 758 mmHg 62%
    13:00 +15°C° 0 mm 4 m/s 758 mmHg 63%
    14:00 +15°C° 0 mm 4 m/s 758 mmHg 63%
    15:00 +15°C° 0 mm 4 m/s 758 mmHg 63%
    16:00 +14°C° 0 mm 4 m/s 758 mmHg 66%
    17:00 +14°C° 0 mm 4 m/s 758 mmHg 68%
    18:00 +13°C° 0 mm 4 m/s 758 mmHg 71%
    19:00 +11°C° 0 mm 3 m/s 759 mmHg 76%
    20:00 +10°C° 0 mm 2 m/s 759 mmHg 81%
    21:00 +8°C° 0 mm 2 m/s 759 mmHg 86%
    22:00 +7°C° 0 mm 2 m/s 759 mmHg 88%
    23:00 +6°C° 0 mm 2 m/s 760 mmHg 90%

    9 Iunie, Marţi

    Timp Temperatura Precipitaţii Vânt Presiune Umiditate
    00:00 +7°C° 0 mm 1 m/s 760 mmHg 93%
    01:00 +6°C° 0 mm 1 m/s 760 mmHg 93%
    02:00 +6°C° 0 mm 1 m/s 760 mmHg 93%
    03:00 +5°C° 0 mm 2 m/s 760 mmHg 93%
    04:00 +5°C° 0 mm 2 m/s 760 mmHg 91%
    05:00 +6°C° 0 mm 2 m/s 760 mmHg 88%
    06:00 +7°C° 0 mm 2 m/s 760 mmHg 86%
    07:00 +9°C° 0 mm 2 m/s 761 mmHg 78%
    08:00 +11°C° 0 mm 3 m/s 761 mmHg 70%
    09:00 +12°C° 0 mm 3 m/s 761 mmHg 62%
    10:00 +13°C° 0 mm 3 m/s 761 mmHg 61%
    11:00 +13°C° 0 mm 3 m/s 761 mmHg 60%
    12:00 +13°C° 0 mm 3 m/s 761 mmHg 59%
    13:00 +13°C° 0 mm 3 m/s 761 mmHg 59%
    14:00 +15°C° 0 mm 2 m/s 761 mmHg 59%
    15:00 +15°C° 0 mm 2 m/s 761 mmHg 59%
    16:00 +14°C° 0 mm 2 m/s 761 mmHg 62%
    17:00 +14°C° 0 mm 2 m/s 761 mmHg 64%
    18:00 +14°C° 0 mm 2 m/s 761 mmHg 67%
    19:00 +12°C° 0 mm 2 m/s 761 mmHg 73%
    20:00 +10°C° 0 mm 2 m/s 762 mmHg 80%
    21:00 +8°C° 0 mm 2 m/s 762 mmHg 87%
    22:00 +7°C° 0 mm 2 m/s 762 mmHg 88%
    23:00 +7°C° 0 mm 2 m/s 762 mmHg 90%

    10 Iunie, Miercuri

    Timp Temperatura Precipitaţii Vânt Presiune Umiditate
    00:00 +7°C° 0 mm 1 m/s 762 mmHg 92%
    01:00 +6°C° 0 mm 1 m/s 762 mmHg 92%
    02:00 +6°C° 0 mm 1 m/s 762 mmHg 91%
    03:00 +6°C° 0 mm 1 m/s 762 mmHg 91%
    04:00 +7°C° 0 mm 1 m/s 762 mmHg 89%
    05:00 +8°C° 0 mm 1 m/s 763 mmHg 86%
    06:00 +9°C° 0 mm 1 m/s 763 mmHg 84%
    07:00 +10°C° 0 mm 2 m/s 763 mmHg 77%
    08:00 +13°C° 0 mm 2 m/s 763 mmHg 71%
    09:00 +13°C° 0 mm 3 m/s 763 mmHg 65%
    10:00 +14°C° 0 mm 3 m/s 763 mmHg 63%
    11:00 +16°C° 0 mm 3 m/s 763 mmHg 62%
    12:00 +16°C° 0 mm 3 m/s 763 mmHg 60%
    13:00 +16°C° 0 mm 3 m/s 763 mmHg 61%
    14:00 +17°C° 0 mm 3 m/s 763 mmHg 61%
    15:00 +17°C° 0 mm 3 m/s 762 mmHg 62%
    16:00 +17°C° 0 mm 3 m/s 762 mmHg 64%
    17:00 +16°C° 0 mm 2 m/s 762 mmHg 66%
    18:00 +16°C° 0 mm 2 m/s 762 mmHg 68%
    19:00 +14°C° 0 mm 2 m/s 763 mmHg 74%
    20:00 +12°C° 0 mm 2 m/s 763 mmHg 80%
    21:00 +10°C° 0 mm 2 m/s 763 mmHg 86%
    22:00 +10°C° 0 mm 1 m/s 763 mmHg 87%
    23:00 +9°C° 0 mm 1 m/s 763 mmHg 89%
    Arată mai mult